[[{"header":{"parameterUnit":"m.s-1","parameterCategory":1,"la1":30.2992,"la2":30.254,"lo1":-89.0895,"lo2":-89.0443,"dy":0.0025,"dx":0.0025,"nx":19,"ny":19,"refTime":"2026-03-27T21:00:00:Z","depth":0,"parameterNumber":2,"parameterNumberName":"U-component_of_WINDS"},"data":[0,0,0,2.1475,2.1476,2.15,2.15,2.1573,2.1574,0,0,0,0,0,0,0,0,0,0,0,2.149,2.1491,2.1475,2.1476,2.15,2.15,2.1572,2.1574,0,0,0,0,0,0,0,0,0,0,0,2.149,2.1491,2.1492,2.1476,2.15,2.15,2.1572,2.154,0,0,0,0,0,0,0,0,0,0,2.151,2.1545,2.1491,2.1493,2.1476,2.15,2.15,2.1538,2.1542,2.1579,0,2.1615,0,2.1596,2.1581,2.1581,0,0,0,2.146,2.1541,2.1527,2.1493,2.1477,2.15,2.1484,2.154,2.1544,2.1585,2.1616,2.1617,2.1597,2.1582,2.1582,2.1844,2.1846,0,0,2.1459,2.1507,2.1524,2.1532,2.1527,2.1484,2.1485,2.1542,2.158,2.1616,2.1618,2.1598,2.1582,2.1583,2.1842,2.1844,0,0,0,2.1466,2.1507,2.149,2.153,2.1531,2.1485,2.1487,2.1577,2.1568,2.1619,2.1599,2.1583,2.1584,2.184,2.1843,2.1988,0,0,0,2.1464,2.1511,2.1491,2.1521,2.153,2.1554,2.1522,2.1564,2.1568,2.1599,2.1583,2.1585,2.1837,2.1841,2.1979,2.205,0,0,0,2.1481,2.1512,2.1523,2.1523,2.1535,2.1551,2.1544,2.1564,2.1557,2.1581,2.1586,2.1836,2.1841,2.1971,2.2036,2.2135,0,0,0,2.1514,2.1652,2.1526,2.1673,2.1535,2.164,2.1544,2.1619,2.1657,2.1584,2.1838,2.1842,2.1969,2.2028,2.2127,2.2227,2.2273,0,0,2.1715,2.1678,2.176,2.1649,2.1788,2.1632,2.1794,2.1783,2.1742,2.1813,2.1819,2.1982,2.2036,2.2133,2.2508,2.2545,0,0,0,2.1841,2.1901,2.1927,2.1965,2.1959,2.1961,2.192,2.1917,2.1975,2.1787,2.2041,2.2071,2.2127,2.2173,2.2204,2.225,2.1865,2.1865,2.1864,2.2197,2.2136,2.2269,2.2213,2.2251,2.2208,2.2234,2.2223,2.215,2.2212,2.2233,2.2468,2.2524,2.2547,2.2595,2.2279,2.228,2.228,2.228,2.2488,2.2566,2.2466,2.2561,2.2497,2.2577,2.2542,2.2489,2.2556,2.2446,2.2492,2.2379,2.2589,2.2628,2.2291,2.2289,2.2288,2.2287,2.2286,2.2716,2.2743,2.2735,2.2785,2.2831,2.2768,2.2838,2.2777,2.272,2.2765,2.2784,2.2781,2.2773,2.2778,2.2779,2.2779,2.278,2.2781,2.2781,2.2957,2.2944,2.3008,2.3016,2.3033,2.3049,2.3009,2.3025,2.3029,2.2979,2.2979,2.2904,2.2619,2.2551,2.2794,2.2791,2.279,2.2789,2.2788,2.3279,2.3197,2.3297,2.3315,2.332,2.3372,2.3293,2.3333,2.3337,2.3375,2.3289,2.3088,2.3046,2.3021,2.2964,2.3299,2.3299,2.3299,2.3299,2.3474,2.3446,2.3536,2.3569,2.3594,2.3534,2.3654,2.3626,2.3584,2.3585,2.3527,2.3445,2.3422,2.3394,2.3361,2.3307,2.3722,2.3723,2.3723,2.367,2.3642,2.3754,2.371,2.3711,2.3714,2.3825,2.3871,2.3806,2.3739,2.3584,2.3567,2.3434,2.3394,2.3325,2.3274,2.3174,0,0]},{"header":{"parameterUnit":"m.s-1","parameterCategory":1,"la1":30.2992,"la2":30.254,"lo1":-89.0895,"lo2":-89.0443,"dy":0.0025,"dx":0.0025,"nx":19,"ny":19,"refTime":"2026-03-27T21:00:00:Z","depth":0,"parameterNumber":3,"parameterNumberName":"V-component_of_WINDS"},"data":[0,0,0,1.9597,1.96,1.9748,1.9749,1.9944,1.9946,0,0,0,0,0,0,0,0,0,0,0,1.9559,1.956,1.9597,1.9601,1.9748,1.9749,1.9943,1.9946,0,0,0,0,0,0,0,0,0,0,0,1.9558,1.956,1.9562,1.9601,1.9748,1.9749,1.9943,1.9829,0,0,0,0,0,0,0,0,0,0,1.9684,1.9654,1.9559,1.9562,1.9602,1.9748,1.9749,1.9823,1.9836,1.988,0,1.9922,0,1.9937,1.9959,1.996,0,0,0,1.9596,1.9644,1.9679,1.9562,1.9603,1.9748,1.968,1.983,1.9845,1.9897,1.9925,1.9932,1.994,1.9961,1.9962,2.0233,2.0235,0,0,1.9588,1.9588,1.9669,1.9689,1.9668,1.9676,1.9685,1.9839,1.9868,1.9925,1.9936,1.9943,1.9962,1.9963,2.0232,2.0234,0,0,0,1.9568,1.9582,1.9613,1.9681,1.9707,1.968,1.9691,1.9862,1.9872,1.9938,1.9946,1.9963,1.9966,2.023,2.0233,2.0307,0,0,0,1.9562,1.957,1.961,1.9611,1.9705,1.9787,1.971,1.9861,1.9879,1.9945,1.9963,1.9968,2.0229,2.0232,2.0302,2.0343,0,0,0,1.9547,1.9568,1.9592,1.9611,1.9675,1.9784,1.9803,1.9865,1.9884,1.996,1.9968,2.0228,2.0231,2.0297,2.0335,2.0416,0,0,0,1.953,1.9654,1.9593,1.9734,1.9673,1.9829,1.9802,1.9918,1.9992,1.9964,2.0229,2.0232,2.0295,2.033,2.0411,2.0487,2.0517,0,0,1.9687,1.9673,1.9756,1.9706,1.9873,1.9806,1.9984,2.0051,2.0057,2.0174,2.0181,2.0304,2.0334,2.0415,2.0686,2.0711,0,0,0,1.9806,1.9866,1.991,1.9982,2.0037,2.0088,2.0128,2.0153,2.0253,2.0118,2.0354,2.0372,2.0419,2.0456,2.0477,2.0518,2.0248,2.0248,2.0248,2.0028,2.0031,2.0169,2.019,2.0259,2.03,2.0357,2.0397,2.0378,2.0433,2.0469,2.0633,2.0675,2.0691,2.0734,2.0507,2.0507,2.0507,2.0507,2.026,2.0346,2.0319,2.0444,2.0445,2.0549,2.0592,2.0575,2.0672,2.0606,2.0648,2.0579,2.0718,2.0756,2.0513,2.0512,2.0511,2.0511,2.051,2.0408,2.045,2.0478,2.0583,2.0662,2.0677,2.0772,2.0769,2.0766,2.0808,2.0846,2.0845,2.0845,2.0826,2.0826,2.0827,2.0827,2.0828,2.0828,2.0551,2.0581,2.0662,2.0731,2.0777,2.0837,2.0878,2.0923,2.0971,2.0962,2.0962,2.0939,2.0731,2.068,2.0837,2.0835,2.0834,2.0833,2.0833,2.0789,2.0735,2.086,2.0907,2.0988,2.1068,2.1062,2.1153,2.1189,2.1236,2.1203,2.1049,2.1035,2.1018,2.0976,2.1201,2.1201,2.1201,2.1201,2.0915,2.0908,2.1036,2.1111,2.1182,2.119,2.1332,2.1365,2.139,2.1412,2.1378,2.1322,2.1305,2.1301,2.1278,2.1239,2.1525,2.1526,2.1526,2.1063,2.1062,2.1184,2.121,2.1273,2.1327,2.146,2.1546,2.1562,2.1539,2.143,2.1416,2.1325,2.1294,2.1272,2.1236,2.1165,0,0]}]]